Theta_e
292 291 291 292 292 292 292 292 292 292 292 292 293 293 294 294 295 296 296 296 296 296 297 297 297 297 298 299 301 303 308 314 320 324 327 329 331 331 332 332 331 330 329 330 333 335 337 338 337 338 340 340 340 340 340 342 342 341 340 340 341 340 339 339 338 336 334 333 333 332 331 331 332 330 329 329 328 327 326 325 325 324 323 323 323
291 291 290 290 291 291 291 292 292 292 292 292 292 293 294 295 295 295 296 296 297 297 297 297 297 297 298 298 299 300 302 306 313 320 323 326 329 330 331 333 332 331 331 332 332 333 335 337 337 338 339 340 341 340 339 339 340 342 341 341 341 340 339 339 337 336 335 334 333 332 332 332 331 329 329 329 328 327 326 325 324 324 323 322 322
291 290 290 290 290 290 290 291 291 291 291 291 292 292 293 294 295 296 296 296 297 297 297 298 298 298 297 298 299 299 300 302 306 313 319 322 325 329 331 332 333 332 331 332 333 331 330 334 337 338 339 340 340 339 340 340 340 341 342 341 341 341 340 339 337 336 335 334 333 332 332 332 331 329 329 328 328 327 326 325 324 323 323 322 322
289 289 289 290 290 290 290 290 290 290 290 291 291 291 292 293 294 295 296 296 296 297 297 298 298 298 298 298 298 298 299 300 302 307 313 317 321 325 329 331 332 333 331 330 332 330 327 331 336 338 338 339 339 339 341 342 341 341 342 341 341 341 340 339 338 337 335 334 333 332 332 332 331 329 328 328 327 327 326 325 324 323 322 322 321
289 289 289 289 289 290 290 289 289 289 289 289 290 290 291 292 293 294 295 296 297 297 298 298 298 299 298 298 298 298 299 299 300 302 307 312 316 320 326 330 331 332 332 330 331 330 328 329 333 337 339 338 338 338 340 341 341 341 342 341 340 340 341 339 338 337 335 334 333 332 332 332 331 329 328 328 327 326 325 324 324 323 322 322 321
289 289 289 289 289 289 289 289 289 289 289 288 288 289 290 292 293 294 295 295 296 297 298 298 298 299 299 298 298 298 298 299 300 300 302 306 311 315 320 326 329 331 331 330 330 330 329 328 331 335 337 338 338 339 339 341 341 341 342 343 340 340 340 340 338 337 335 334 334 332 332 331 330 329 328 328 326 326 325 324 323 322 322 321 321
288 288 288 288 288 288 288 288 288 288 288 288 288 288 289 291 292 294 295 295 296 297 297 298 299 299 299 299 299 298 298 298 299 300 301 302 307 312 316 321 326 329 330 330 330 330 329 328 330 333 335 337 338 339 340 341 341 341 341 342 341 340 340 340 339 337 335 334 334 332 332 331 330 328 328 327 326 325 324 323 323 322 321 321 320
288 287 287 287 287 287 287 287 287 287 287 287 287 288 288 289 291 293 294 295 296 297 297 298 298 299 299 298 299 299 299 298 299 300 301 301 303 309 313 317 322 327 328 329 329 329 329 328 328 331 334 336 337 338 339 340 341 341 342 342 341 340 340 340 340 337 335 335 333 332 331 331 330 328 328 327 325 325 324 322 322 321 321 320 320
288 288 287 287 287 287 287 287 286 286 286 286 286 287 287 288 289 291 294 296 297 297 298 298 298 298 298 298 298 299 299 299 299 299 300 301 302 305 309 313 317 323 327 328 328 329 329 329 328 329 333 336 336 337 339 339 340 341 343 342 340 340 340 340 340 338 336 335 333 332 331 330 330 328 327 327 325 324 323 322 322 321 320 320 319
288 288 288 288 288 287 287 287 286 286 286 285 286 286 287 287 288 289 292 294 296 297 298 298 299 298 298 298 298 299 299 299 299 298 299 300 301 302 306 310 314 319 325 327 328 328 329 329 329 329 331 334 336 336 337 338 339 340 342 342 341 341 340 339 340 338 336 335 333 332 331 330 329 328 327 326 324 323 323 322 321 321 320 320 319
288 288 288 288 288 287 287 287 286 286 286 285 285 286 286 287 287 288 289 291 294 296 298 298 298 298 298 298 298 298 298 299 299 299 299 300 301 302 304 309 311 315 321 326 327 328 329 329 330 330 330 332 335 336 336 336 337 338 339 340 341 341 339 339 339 338 337 335 333 332 331 330 329 328 327 326 324 323 322 321 321 321 320 319 318
287 287 287 287 287 287 287 287 286 286 286 285 285 286 286 287 287 288 289 290 293 295 296 297 298 298 298 298 298 298 298 298 299 299 299 299 301 302 304 307 311 313 317 323 326 328 329 329 329 330 330 332 334 335 335 335 336 336 337 339 340 340 339 339 338 338 337 335 333 332 331 329 328 327 326 324 323 322 321 320 320 320 319 319 318
287 287 287 287 286 286 286 286 285 285 285 285 285 286 286 287 287 288 289 290 292 295 296 297 297 298 298 298 298 298 298 298 298 298 298 298 299 302 304 307 311 314 316 320 325 327 328 329 330 331 331 332 332 333 334 334 334 335 337 339 339 339 339 338 338 338 337 335 333 331 330 329 327 326 325 323 322 322 320 320 320 320 319 318 318
287 287 286 286 285 285 284 284 284 283 284 284 285 285 285 286 287 288 288 289 291 294 296 297 297 297 297 297 297 297 298 298 298 299 299 299 300 301 304 306 310 314 316 320 324 327 328 329 330 331 332 332 331 331 331 332 333 334 336 337 337 337 338 337 338 338 336 334 332 331 330 328 326 326 324 322 321 321 320 319 319 319 319 318 318
286 286 285 285 284 284 283 283 283 283 283 283 283 283 284 284 285 287 288 289 290 292 294 295 296 297 297 297 298 298 299 298 299 299 300 302 304 306 307 308 310 314 317 319 323 326 328 329 330 331 332 332 331 330 330 331 332 333 335 336 335 335 336 337 338 338 336 334 332 330 329 327 326 325 323 322 321 320 320 319 319 319 318 318 318
285 284 284 284 283 283 283 283 282 282 282 282 282 282 283 283 284 286 288 290 291 292 293 294 295 296 297 298 298 299 299 298 299 300 300 303 306 308 311 312 313 314 317 319 322 325 327 329 330 331 332 332 332 331 329 329 330 332 334 334 333 333 335 336 337 337 336 334 331 329 328 326 324 324 323 322 320 320 320 319 319 319 318 318 318
283 283 283 282 282 282 282 282 282 282 281 281 281 282 282 282 284 285 287 289 290 291 292 293 295 296 297 298 298 298 298 298 300 300 299 301 303 304 308 311 314 316 317 319 321 324 326 328 329 331 331 331 331 331 330 329 329 329 331 331 331 331 333 335 336 337 336 334 331 328 326 325 323 323 322 321 320 320 319 319 320 319 318 318 318
283 283 283 282 282 282 281 281 281 281 281 281 281 281 281 282 283 284 286 287 289 290 291 292 294 295 296 297 298 298 298 298 299 299 298 299 300 300 301 304 308 311 314 317 319 321 324 326 328 329 330 331 331 331 330 330 329 329 329 329 329 328 330 332 335 336 336 334 331 327 325 324 323 323 321 321 321 320 319 319 319 319 318 318 318
283 283 283 282 282 281 281 281 281 280 280 280 280 280 280 281 282 283 283 285 286 288 290 291 293 294 296 297 298 299 299 298 298 299 299 299 299 299 300 300 303 306 308 311 314 317 320 323 325 327 328 330 330 331 331 330 330 329 328 328 328 328 329 331 333 335 336 334 331 328 325 323 323 322 321 321 321 320 320 319 319 319 319 318 318
282 282 282 281 281 281 281 281 280 280 280 280 280 280 280 281 281 282 282 282 284 287 289 291 291 292 294 296 298 298 299 299 299 299 299 299 299 299 300 300 301 303 305 306 308 311 315 319 322 325 326 328 329 330 330 330 330 329 329 329 328 328 329 330 332 334 335 334 331 328 324 323 323 322 321 321 321 320 320 320 320 319 318 318 318
281 281 281 281 280 280 280 280 280 280 279 279 279 280 280 281 281 281 281 282 283 286 288 289 290 290 291 293 295 297 298 299 300 300 300 300 299 299 300 300 301 302 303 305 306 308 311 315 319 322 325 326 327 328 329 330 330 330 330 329 329 329 329 329 331 332 334 332 330 327 324 323 323 322 321 321 321 320 320 320 320 320 319 319 319
280 280 280 280 280 280 280 279 279 279 279 279 279 279 279 280 280 281 281 282 283 284 285 287 288 289 290 291 293 295 296 297 299 299 300 300 300 300 300 301 301 302 302 304 306 308 310 312 316 320 323 325 326 328 329 329 330 330 330 330 330 330 330 330 330 332 332 331 328 326 324 324 323 321 320 321 321 321 320 320 320 320 319 319 320
279 279 279 280 279 279 279 279 279 278 278 279 278 278 279 279 280 281 281 281 281 281 282 285 287 288 288 289 291 294 295 296 297 298 299 300 300 300 301 301 301 301 302 302 304 306 309 312 314 317 320 323 326 327 328 329 330 330 331 331 330 330 330 330 330 331 331 329 327 326 324 324 323 322 321 320 321 321 320 320 320 319 319 320 320
278 279 279 279 279 278 278 278 278 278 278 278 278 278 278 279 280 280 280 280 279 280 281 284 287 287 287 289 291 292 294 296 296 297 298 298 298 299 300 301 302 302 303 304 305 307 309 311 313 316 319 322 324 326 328 329 330 330 330 330 330 330 329 329 329 331 331 328 326 325 325 323 323 322 321 321 321 321 320 321 320 320 319 319 319
278 278 278 278 278 278 278 278 278 278 278 278 278 278 278 278 279 279 279 279 279 280 282 285 286 286 287 288 289 290 292 294 296 296 297 297 298 299 299 300 302 303 303 304 305 307 310 311 313 315 318 321 323 325 327 328 329 330 330 330 330 329 329 328 328 330 330 328 326 325 325 324 323 322 321 322 321 320 320 321 320 319 319 319 318
277 277 277 277 277 277 277 277 277 277 277 277 277 277 278 278 278 278 278 278 279 280 283 283 283 284 285 286 287 288 290 292 295 296 297 297 298 299 300 300 302 303 303 303 304 306 309 310 312 315 318 320 323 325 326 328 328 329 329 330 329 329 329 328 328 330 330 327 326 325 324 324 323 322 322 323 321 319 319 320 319 319 319 319 318
277 277 277 277 277 277 277 277 277 277 277 277 277 277 277 278 278 278 278 278 280 281 282 282 282 282 284 285 286 287 288 290 294 296 297 298 299 299 300 300 302 303 304 304 305 306 307 308 310 313 317 320 322 324 326 327 327 328 328 329 329 329 329 328 328 329 328 326 326 324 324 324 323 323 323 321 319 319 319 318 319 319 319 319 318
276 276 276 276 277 277 277 277 277 277 277 277 277 277 277 277 278 278 278 279 279 280 280 281 281 282 283 284 286 287 287 289 293 296 297 298 299 299 300 300 301 303 305 305 305 306 306 308 309 311 314 318 321 323 325 326 327 327 327 327 327 327 328 328 328 328 326 325 325 324 324 324 323 323 322 320 319 319 318 317 319 319 319 319 317
275 276 276 276 276 276 276 276 276 276 276 276 276 276 276 277 277 277 277 278 278 278 278 279 280 281 282 284 285 286 287 288 291 295 297 297 298 299 300 300 301 303 305 305 305 306 306 308 310 311 313 315 319 321 323 324 326 326 325 325 325 325 326 326 327 327 325 324 324 324 323 323 323 323 322 321 320 319 319 318 319 319 318 318 318
275 275 275 276 276 276 276 276 276 276 276 276 276 276 276 276 276 276 277 277 277 277 278 279 280 281 283 284 284 285 285 286 289 293 296 296 297 299 299 300 301 302 304 304 305 305 305 307 309 311 313 315 318 320 323 324 325 325 324 323 325 326 326 325 325 325 325 324 324 323 322 322 323 323 321 320 320 320 319 319 318 318 318 318 318
274 275 275 275 275 275 276 276 276 276 276 276 276 276 275 275 276 276 276 277 277 278 278 279 280 280 281 282 282 283 283 285 287 291 295 296 297 298 299 299 300 301 302 303 304 304 304 305 306 307 310 314 318 320 322 323 324 325 324 324 324 325 325 325 324 323 324 323 323 323 322 322 323 322 321 320 320 320 319 319 318 317 317 318 317
274 274 274 274 275 275 275 275 275 275 276 276 275 275 275 275 275 275 276 276 277 277 278 279 278 278 279 280 281 282 283 285 286 289 294 296 297 297 298 299 299 300 302 303 304 304 303 304 304 304 305 310 316 320 321 323 324 325 325 325 324 324 324 323 323 323 322 321 321 321 322 322 322 322 322 321 320 320 319 319 318 316 315 316 317
273 273 273 274 274 274 275 275 275 275 275 275 275 275 274 274 274 274 275 275 276 276 277 278 277 277 278 280 281 282 283 284 284 287 292 295 296 297 298 298 298 300 301 302 303 304 303 303 304 304 304 305 313 320 321 321 323 324 324 324 324 324 323 322 322 322 322 321 320 321 321 322 321 321 322 322 322 321 319 318 318 317 316 317 318
272 272 272 273 273 273 274 274 274 274 274 274 274 274 273 273 273 273 274 274 275 275 276 277 277 277 278 279 279 280 281 282 283 285 290 294 296 296 297 297 298 299 301 302 303 303 304 303 303 304 304 305 310 318 321 321 320 321 323 324 324 324 323 322 322 322 322 321 321 321 322 322 321 321 322 322 322 321 318 316 318 319 317 319 320
271 271 272 272 272 273 273 273 273 273 273 273 273 273 273 272 272 273 273 274 274 275 275 275 276 276 277 277 277 278 280 281 282 284 288 293 295 296 296 297 298 299 300 301 302 303 303 303 303 304 305 306 309 316 321 321 319 320 323 323 323 323 322 321 322 322 322 322 321 321 322 322 321 321 321 321 321 322 319 318 319 320 318 320 321
270 271 271 271 271 271 272 271 271 271 271 271 271 271 272 272 272 272 272 273 274 274 275 275 275 275 275 276 276 278 279 281 282 283 286 291 295 295 296 296 297 298 299 300 302 303 303 303 304 304 306 307 310 316 321 321 319 321 322 323 322 322 321 321 321 322 322 322 321 321 322 322 322 321 320 320 321 321 321 320 320 320 320 321 322
270 270 270 270 270 270 270 270 270 269 270 270 270 270 271 271 271 271 272 272 273 274 274 274 274 274 275 275 276 277 279 281 283 283 285 290 294 295 295 296 297 298 299 299 300 301 302 304 304 304 306 308 311 317 321 320 319 321 321 321 321 321 321 321 321 321 321 321 321 321 321 321 321 321 320 320 321 321 320 320 320 320 321 322 322
269 269 268 268 268 268 268 268 268 268 268 268 269 269 269 270 270 270 271 272 272 273 273 274 274 274 274 275 275 276 278 280 282 283 285 289 293 294 295 295 296 297 298 298 299 299 301 303 304 304 306 308 311 316 319 320 319 319 318 319 319 320 320 319 319 320 320 320 320 320 320 320 319 320 320 320 320 320 321 321 321 322 322 322 322
267 267 267 267 267 267 267 267 267 267 267 267 268 268 268 269 269 270 271 271 272 272 273 273 274 274 274 274 275 276 277 279 281 282 284 288 291 293 294 294 295 296 297 297 298 299 300 302 303 304 305 307 310 315 318 319 320 318 317 316 316 317 318 319 318 318 318 318 319 319 319 319 319 319 319 320 320 320 321 321 322 322 322 322 322
265 265 265 265 265 265 266 266 266 266 266 266 267 267 268 269 269 270 270 271 272 272 273 273 273 273 274 274 275 275 276 278 281 283 285 287 290 292 293 294 294 294 295 295 296 298 300 302 303 304 305 306 308 313 317 318 318 318 317 316 315 315 316 318 318 317 317 317 318 318 318 318 319 319 319 319 320 320 321 322 322 322 322 322 322
264 264 264 264 264 264 264 265 265 265 266 266 267 268 268 269 270 270 270 271 271 272 272 273 273 273 273 274 274 275 276 277 279 281 282 284 287 291 293 293 293 293 293 293 293 294 296 299 302 304 305 306 308 311 315 317 317 317 317 317 316 316 316 316 316 317 317 317 317 317 317 318 318 318 317 318 319 320 321 322 322 322 322 322 322
263 263 263 263 263 264 264 264 265 265 266 266 267 268 269 270 271 271 272 272 272 272 272 273 273 273 274 274 275 276 277 278 279 280 282 283 285 288 291 292 292 292 292 292 292 293 293 294 298 303 306 306 308 311 314 316 318 317 317 317 315 315 315 314 314 315 316 317 316 315 316 317 317 316 316 318 319 320 321 321 322 322 322 322 322
262 263 263 263 263 263 264 264 265 265 266 266 267 269 270 271 272 273 273 273 274 274 274 274 274 274 275 275 276 277 278 279 280 281 283 284 286 288 290 291 291 291 292 291 292 292 292 292 295 301 306 307 308 312 315 316 317 317 317 316 315 314 313 313 313 313 315 316 315 314 314 315 316 316 316 318 319 320 321 321 321 321 321 322 321
262 263 263 263 263 264 264 265 265 266 266 267 268 269 271 272 273 274 274 274 274 275 275 275 275 275 276 276 276 277 278 280 281 283 285 286 288 289 290 291 291 291 292 292 292 291 292 291 292 297 305 308 308 312 316 316 316 317 316 315 315 314 313 313 313 312 314 316 316 314 313 314 315 315 315 316 318 319 320 320 321 321 320 321 321
263 263 263 264 264 264 265 265 265 266 266 267 268 270 271 272 273 274 275 275 275 275 275 276 276 276 276 276 277 277 278 280 282 284 286 287 289 290 291 291 291 291 291 292 292 292 291 291 291 292 299 307 310 312 315 317 316 315 315 314 314 314 313 313 312 312 313 315 315 313 311 312 314 314 314 315 317 318 319 320 320 320 320 321 320
263 263 264 264 264 264 265 265 265 265 266 267 268 270 271 272 273 275 275 276 276 276 276 276 276 276 276 276 277 277 278 280 282 285 287 288 290 291 291 291 291 291 291 291 291 292 291 291 291 291 294 301 309 313 315 316 316 315 314 313 313 313 313 313 313 313 313 314 314 313 310 310 313 313 313 314 316 317 319 319 319 320 319 319 320
263 263 264 264 264 264 264 264 265 265 265 266 268 270 271 273 274 275 276 276 277 277 277 277 277 277 277 277 277 277 278 279 281 284 286 287 289 290 290 291 291 291 291 291 291 291 291 291 292 293 293 296 305 313 315 316 316 315 315 314 314 313 312 312 311 311 312 313 314 312 310 309 311 312 311 312 314 315 317 318 319 319 318 317 319
263 263 264 264 264 264 264 264 264 265 265 266 268 269 271 273 274 275 276 277 277 278 277 277 277 277 277 277 277 278 278 279 280 282 284 286 288 290 290 291 291 291 291 291 291 291 291 291 292 293 294 295 300 309 315 316 316 316 315 313 312 311 310 310 309 308 310 312 312 312 310 308 309 310 309 310 313 314 315 317 318 318 317 317 318
263 263 263 263 263 264 264 264 264 265 265 266 268 269 271 272 274 275 276 277 278 278 278 278 277 277 277 277 277 278 279 280 281 282 284 286 288 289 290 290 290 291 291 291 291 291 291 292 292 292 295 296 299 307 314 315 315 315 313 310 309 310 311 310 308 308 309 310 310 311 309 306 307 309 307 308 312 313 313 315 317 317 317 317 318
263 263 263 263 263 263 263 264 264 265 266 266 268 269 271 272 274 275 276 277 277 278 278 278 278 278 278 278 278 278 279 280 281 283 284 285 286 288 289 290 290 291 291 291 291 291 291 292 292 293 296 298 300 306 313 315 314 314 312 310 310 311 311 310 308 308 308 308 308 309 308 305 306 307 304 304 307 310 311 314 315 315 315 316 317
263 263 263 263 263 263 263 264 264 265 266 266 267 269 271 272 274 275 275 276 277 277 278 279 279 278 278 279 279 279 280 280 281 283 284 285 286 287 289 289 290 290 291 291 291 291 291 291 291 294 298 301 302 307 313 314 314 314 313 311 312 312 311 309 308 308 309 308 308 309 307 304 305 306 304 304 305 306 308 311 313 314 314 315 316
Wind_Speed
24 25 25 27 28 29 31 33 34 34 33 32 31 30 31 31 32 32 31 31 32 32 32 33 33 33 32 32 32 31 31 30 32 35 38 39 40 42 42 44 46 47 47 45 43 44 46 46 49 49 47 48 49 50 50 48 47 47 48 48 49 49 48 47 46 46 45 44 43 42 41 40 39 39 36 32 30 30 30 31 31 31 30 28 27
23 24 25 26 27 28 30 31 32 32 33 32 31 30 30 30 30 31 31 31 31 30 31 32 32 32 32 32 32 32 32 32 32 34 36 39 41 42 43 44 46 47 49 47 44 44 45 46 49 50 50 51 50 49 52 52 49 48 49 48 46 47 49 47 47 47 47 46 45 44 43 42 41 41 38 33 31 31 31 32 31 31 30 29 27
21 23 25 26 27 28 29 29 30 30 30 31 31 31 30 30 29 29 30 31 31 30 30 31 31 31 32 32 33 34 35 34 34 35 35 37 41 43 44 45 47 48 50 49 46 45 46 47 48 49 51 53 53 52 50 51 51 50 49 48 46 47 49 49 48 49 49 48 47 46 45 43 42 42 39 36 35 33 33 33 32 31 30 30 29
22 23 24 25 26 27 28 29 29 29 29 29 29 29 30 31 30 30 29 29 30 30 29 29 30 31 31 32 33 35 36 36 36 36 35 35 38 42 45 46 47 48 50 50 48 47 48 48 49 50 51 53 56 56 50 49 51 52 51 51 49 48 51 52 51 51 51 50 49 48 46 44 43 43 41 38 37 35 35 34 32 32 31 30 30
23 24 25 26 27 28 30 30 29 29 29 28 27 27 27 29 31 31 31 30 30 30 29 30 30 29 30 31 33 35 36 37 38 38 37 37 36 39 43 46 48 48 50 51 50 49 49 49 49 51 50 51 56 57 54 51 50 53 51 50 51 50 53 55 53 52 53 53 51 50 48 46 45 44 43 40 38 37 37 35 33 33 32 31 30
25 25 26 27 28 29 29 30 30 30 29 28 27 26 25 27 28 30 31 32 32 31 29 30 30 30 30 30 32 34 36 37 39 38 39 39 37 36 40 44 47 49 50 51 50 50 50 50 50 52 52 53 57 57 56 53 52 56 52 49 52 52 55 59 56 54 54 55 54 52 50 48 47 46 45 42 40 39 38 36 35 34 33 32 31
25 26 26 26 26 27 27 28 29 29 29 27 27 27 26 25 26 28 30 30 32 32 30 31 31 31 30 30 32 33 36 39 40 39 39 39 38 37 37 41 46 49 50 51 50 49 50 51 51 53 54 55 58 59 56 51 52 56 54 49 52 54 55 57 58 57 57 56 55 53 52 51 48 48 46 43 42 40 38 38 36 35 35 33 32
26 26 26 26 26 26 27 27 28 28 28 26 25 26 26 26 25 25 29 30 30 32 31 31 33 33 32 32 33 33 35 39 40 41 40 38 39 39 38 38 43 49 51 50 49 47 47 49 52 53 55 56 57 60 58 52 50 51 51 51 53 55 55 56 58 59 59 57 56 55 54 52 49 50 47 43 43 41 39 39 37 36 35 34 33
27 27 28 28 28 28 29 29 29 28 27 25 24 24 24 26 26 24 26 29 30 30 31 31 32 34 35 35 36 35 35 37 39 42 41 40 40 41 41 40 42 47 51 51 49 47 46 47 50 52 55 57 57 59 58 54 52 49 49 51 53 55 55 58 60 61 61 60 58 57 56 53 51 52 49 44 44 42 40 39 38 37 36 35 35
27 28 29 30 31 31 31 31 31 30 28 26 24 23 22 23 25 25 24 27 30 30 29 30 31 34 36 39 39 38 38 37 39 42 42 43 42 42 43 42 41 45 49 52 51 49 46 46 48 51 55 58 58 58 56 53 51 48 48 48 51 53 54 57 60 62 63 62 60 59 58 56 53 53 51 46 44 43 41 40 39 38 37 37 37
27 28 29 31 32 32 32 32 32 32 30 28 26 24 22 22 25 27 26 26 28 30 30 30 31 33 36 39 39 40 41 40 39 40 41 43 44 43 42 42 42 44 47 50 51 49 47 46 47 49 53 58 58 57 57 55 49 47 49 47 48 51 53 56 61 62 62 62 61 60 59 59 55 53 50 46 46 45 43 41 41 39 37 38 38
27 28 29 30 31 31 32 32 32 32 31 30 28 25 23 23 24 26 28 27 26 27 29 29 31 34 36 37 38 39 40 41 40 40 40 43 45 44 42 42 43 43 46 49 50 50 48 46 47 48 52 55 57 57 58 58 52 49 50 48 46 48 50 57 62 62 63 63 62 62 60 59 57 55 52 49 48 46 44 43 42 40 39 39 39
27 28 28 29 31 31 31 31 30 29 28 27 26 24 23 23 24 26 26 27 26 23 23 26 27 26 26 30 35 38 37 38 40 42 42 43 44 45 43 42 43 44 46 48 50 50 49 47 47 48 51 52 54 57 59 59 56 52 49 46 45 44 46 55 62 61 63 64 64 64 60 59 58 55 52 50 49 47 45 45 43 41 41 40 39
26 27 28 28 29 30 29 29 28 26 25 24 23 22 22 22 24 26 25 24 25 23 21 20 19 18 16 18 24 30 32 33 36 39 37 38 41 43 44 43 44 46 45 46 48 49 49 48 47 48 51 51 50 53 57 59 59 58 53 48 45 42 43 50 59 61 63 66 66 66 63 60 57 52 51 52 49 46 45 45 44 43 43 41 39
26 26 27 27 27 28 28 27 26 25 24 24 23 23 23 22 22 25 26 25 24 23 22 20 20 21 16 12 11 15 19 21 24 28 27 29 34 37 40 43 45 45 43 43 46 48 48 48 48 49 50 51 51 51 54 58 60 60 57 52 48 44 42 45 58 64 63 66 66 65 64 62 58 54 52 52 49 47 47 46 45 44 43 41 40
25 25 25 25 25 25 26 26 26 25 24 25 25 24 23 22 22 23 24 24 23 22 21 21 24 21 11 7 7 7 12 10 9 20 26 26 29 30 32 36 42 43 41 41 45 47 48 48 48 49 50 50 51 51 53 57 59 60 58 55 51 47 42 41 54 66 63 63 65 64 63 62 60 57 54 52 50 48 48 47 46 44 42 41 41
24 24 23 23 23 24 25 25 25 24 24 24 25 24 23 22 21 22 23 22 24 25 23 21 25 26 19 11 7 5 9 8 7 16 24 23 25 27 27 28 33 35 35 39 44 46 46 48 47 48 49 50 51 51 54 55 56 58 59 58 56 52 47 40 48 63 64 63 65 65 65 63 60 57 55 54 52 50 49 47 46 44 42 41 41
25 24 24 24 25 25 24 24 24 23 23 24 24 24 23 22 20 21 22 22 24 26 26 24 24 30 33 30 23 16 11 9 8 11 17 21 25 29 31 31 31 29 27 31 38 42 44 46 47 47 46 48 50 51 53 54 54 55 57 60 61 58 54 46 46 60 67 66 67 68 67 65 61 57 56 54 52 51 49 48 47 45 44 42 42
26 25 25 26 26 26 25 24 24 23 23 24 25 24 23 22 20 21 23 24 24 25 27 27 23 25 32 36 37 33 24 16 11 9 12 18 22 25 28 31 31 29 27 28 32 36 40 43 46 47 46 45 48 49 52 53 52 52 53 57 60 59 57 52 49 61 71 69 69 73 71 67 62 59 58 55 52 50 49 49 48 45 44 43 41
26 26 26 26 26 26 25 25 25 25 24 25 25 25 24 24 23 23 25 26 27 27 28 27 23 22 27 29 30 32 31 28 24 17 10 11 16 18 21 25 29 30 30 30 31 32 36 41 44 47 48 47 48 49 51 52 51 51 51 53 56 58 58 56 53 61 74 75 69 73 75 70 65 61 59 56 53 51 51 50 48 45 44 43 43
26 26 26 26 26 26 26 25 25 26 26 26 26 25 25 25 26 25 26 26 26 27 28 28 26 26 25 25 26 28 29 30 30 24 14 11 14 14 14 17 21 27 29 29 29 29 32 40 44 46 48 48 48 50 51 52 51 50 52 53 54 55 55 56 53 52 64 78 72 67 70 68 66 63 57 55 54 52 51 50 49 47 46 45 44
28 27 27 27 26 26 26 26 26 26 26 26 26 27 26 26 27 26 26 26 26 27 29 30 31 31 27 25 25 23 20 20 21 20 15 13 14 13 11 9 12 21 28 28 29 30 30 36 42 45 46 47 48 50 51 53 54 53 53 54 55 55 54 53 50 45 49 69 74 68 66 63 63 62 57 55 54 52 50 51 50 47 46 45 44
29 28 27 27 27 27 27 27 27 27 27 27 27 28 27 26 25 25 25 25 27 29 32 34 33 31 29 28 28 25 21 17 17 17 13 10 11 13 9 8 11 17 27 31 32 33 32 34 39 43 45 47 47 48 50 52 55 56 56 55 55 56 55 51 48 44 45 58 68 69 67 63 60 60 58 56 53 51 52 53 51 48 47 46 44
29 28 28 27 27 28 28 28 28 27 28 28 28 28 27 26 26 26 26 27 29 31 32 33 32 29 29 30 31 32 29 27 27 23 18 14 13 12 9 10 11 14 24 29 29 33 33 32 36 41 45 46 45 46 48 50 53 55 56 57 58 57 57 55 51 50 52 57 63 65 65 64 62 58 57 58 55 52 52 53 51 48 47 47 45
30 30 29 28 28 28 29 29 29 28 28 29 29 29 28 27 27 28 29 29 30 31 32 30 29 29 31 33 34 34 33 33 33 31 27 23 16 12 12 12 10 12 18 21 23 27 28 29 33 39 44 45 43 44 46 48 50 53 55 57 59 60 59 59 56 56 62 65 64 64 62 61 61 60 59 58 55 55 55 53 51 49 48 46 45
31 31 31 30 29 29 29 30 30 30 30 30 30 29 27 27 28 29 29 29 29 32 33 32 33 34 34 35 36 37 37 35 35 35 32 25 16 12 11 10 10 10 11 16 19 20 21 25 30 34 40 42 42 43 45 46 46 50 55 55 56 61 63 61 61 63 70 72 68 66 63 60 59 61 61 59 56 57 58 53 52 52 50 48 47
33 33 32 31 31 30 30 30 31 31 32 31 29 27 26 27 28 28 28 29 29 31 32 33 35 37 37 37 36 37 38 37 36 38 35 29 23 20 14 9 10 10 8 11 14 16 22 27 30 32 35 36 38 41 42 42 42 43 49 51 52 60 65 63 64 68 73 76 72 67 65 61 60 61 62 60 59 59 58 55 54 53 49 49 50
33 33 33 32 31 31 31 31 31 31 33 31 29 27 27 28 29 29 29 28 28 29 30 30 32 35 37 38 36 36 37 37 37 37 36 33 30 27 21 13 10 8 7 8 8 14 24 26 25 32 37 37 35 38 39 38 39 40 42 45 46 54 64 67 69 73 73 72 70 66 64 62 60 61 61 59 60 59 58 57 55 52 50 49 49
32 33 33 33 33 32 32 32 31 31 33 33 31 29 28 29 29 30 30 30 30 31 31 32 34 35 36 37 36 36 37 37 37 37 37 35 31 29 27 22 16 9 7 9 6 8 17 21 20 26 35 40 38 36 38 38 37 38 38 39 41 46 58 67 72 76 73 68 65 62 62 63 62 62 61 60 60 60 58 57 53 52 51 50 50
32 32 33 33 34 33 32 33 32 32 34 35 33 30 29 29 29 30 31 30 30 31 31 32 33 33 32 33 34 37 38 38 39 38 38 36 31 29 29 29 24 15 8 9 9 7 11 17 21 23 28 36 41 38 39 41 39 38 37 35 39 48 57 63 66 68 68 66 64 62 62 63 63 63 62 60 60 60 59 58 56 54 53 52 52
31 32 33 34 34 34 33 33 32 32 32 30 28 26 26 27 28 29 29 29 29 30 30 28 28 27 28 30 33 37 38 38 38 38 36 34 30 28 28 28 27 23 15 9 10 12 14 16 23 27 27 31 39 42 41 43 42 41 39 36 38 47 55 59 62 63 65 66 66 63 62 62 62 61 60 60 60 59 58 58 56 55 54 54 53
31 32 33 33 34 34 33 32 32 31 29 26 23 21 22 25 28 29 30 30 31 31 31 28 25 27 30 33 34 34 35 34 35 37 35 33 30 28 27 27 27 28 23 12 9 14 18 21 25 28 29 32 36 42 42 43 46 46 44 41 39 44 49 54 60 64 67 69 68 65 63 61 61 60 59 59 59 58 58 57 56 56 56 54 52
31 32 33 33 33 33 32 30 30 29 29 26 22 19 20 24 28 30 31 32 33 33 32 30 28 29 31 33 32 30 30 32 32 36 35 32 30 27 26 27 27 27 24 16 11 12 18 24 27 29 32 33 34 39 43 43 47 49 47 44 42 45 49 50 56 62 66 69 70 68 65 62 61 60 58 58 59 58 57 56 56 56 56 54 51
32 31 32 32 31 30 30 29 28 29 30 29 24 19 19 24 28 30 30 31 34 33 32 31 31 30 30 31 31 30 31 32 32 35 36 32 29 27 26 26 27 27 26 21 14 10 14 20 25 27 31 32 34 38 43 44 48 49 47 46 46 48 51 51 55 59 61 64 67 68 67 65 62 60 58 58 58 57 57 57 56 56 55 54 52
31 29 29 29 30 30 30 29 28 29 31 30 27 25 23 24 27 29 29 30 33 34 33 33 32 32 31 32 32 31 31 32 32 34 35 31 28 28 28 28 27 26 27 26 20 12 11 17 22 25 27 30 35 40 44 46 50 51 48 48 49 50 50 51 55 57 58 59 62 64 65 65 63 61 58 57 57 56 57 57 56 55 55 53 51
28 27 27 27 29 29 28 28 29 31 31 30 31 30 28 27 28 30 30 30 32 34 34 33 32 32 33 33 32 30 29 31 32 33 33 30 27 27 27 27 28 27 28 28 25 20 15 15 19 24 26 28 34 39 45 45 47 51 49 48 51 52 51 52 55 57 58 59 61 62 62 62 62 61 58 56 56 56 55 55 55 55 54 52 50
25 26 27 27 28 28 28 29 32 33 32 31 32 33 31 30 31 32 32 32 33 34 35 34 33 33 34 34 33 31 29 29 30 30 32 30 27 25 24 25 26 27 26 26 26 26 22 16 17 23 25 27 33 36 45 46 41 43 45 48 52 53 52 52 52 56 59 58 59 61 60 60 60 59 59 56 54 56 55 53 54 54 52 51 50
25 26 27 28 28 30 31 32 32 33 33 32 33 33 33 33 32 33 33 33 34 35 35 34 33 33 34 35 34 31 30 30 30 30 32 30 26 23 22 23 24 24 24 26 26 26 26 23 21 21 22 26 31 30 39 48 42 37 36 40 47 52 53 50 47 51 57 57 58 61 60 59 59 59 59 57 55 55 55 54 54 53 52 51 50
27 28 29 29 29 30 32 33 32 33 34 33 33 34 34 33 33 33 33 33 33 34 33 33 31 32 34 35 33 32 32 32 33 34 34 32 28 25 24 23 23 23 22 23 24 24 25 24 21 20 22 26 29 25 32 47 46 41 39 32 30 38 47 48 46 47 52 54 56 60 61 60 60 61 61 59 57 56 54 54 53 51 50 51 50
27 27 28 29 31 31 32 33 34 34 34 34 33 33 33 32 32 33 33 33 33 32 32 31 30 31 33 34 34 34 35 35 36 36 35 31 27 25 24 23 21 20 19 19 19 19 21 20 18 19 22 25 28 27 29 38 32 31 41 37 27 33 41 45 49 51 51 52 54 56 58 57 58 60 60 58 58 57 54 52 51 50 50 51 50
26 27 28 29 31 32 33 33 33 33 33 32 31 31 31 31 31 31 32 32 32 32 32 32 31 32 33 34 36 36 36 38 40 42 42 39 33 27 24 23 22 21 21 20 17 16 15 14 14 17 17 17 22 23 21 26 24 26 39 41 34 38 43 41 46 53 54 52 50 51 54 56 56 56 56 56 56 56 55 53 52 51 50 50 50
28 29 30 29 29 32 33 33 32 31 31 31 31 31 31 32 32 32 30 29 28 28 30 31 31 31 32 33 35 36 38 39 41 43 45 44 41 36 30 26 24 23 21 19 17 15 12 10 12 15 13 12 20 24 20 27 35 38 41 38 32 35 38 32 31 43 54 53 47 45 49 54 55 52 52 55 56 55 55 54 54 53 52 51 53
31 31 31 32 32 32 32 32 32 31 31 31 32 33 33 34 34 34 32 31 28 27 28 29 28 29 30 32 33 34 35 37 39 40 41 41 40 40 38 34 31 29 27 21 17 16 13 11 15 17 14 12 21 30 30 34 39 40 40 38 34 32 27 19 16 26 46 54 48 42 43 49 54 51 49 53 55 55 56 55 54 55 55 54 55
32 31 32 35 36 33 30 30 31 32 32 33 33 34 34 34 35 34 33 31 30 29 27 27 27 29 31 32 32 31 32 35 36 36 37 38 39 39 40 39 36 34 33 29 24 20 17 14 14 18 18 19 25 32 35 37 36 38 40 39 39 36 28 20 16 23 46 59 50 39 37 44 51 51 48 50 53 54 55 55 54 55 57 56 54
32 32 32 33 31 28 28 30 31 32 33 33 33 34 35 35 36 35 31 28 30 32 31 28 27 29 32 31 30 31 32 34 35 35 34 34 35 36 37 38 37 35 33 32 29 27 26 22 18 23 28 27 29 35 41 44 39 37 36 35 39 41 34 28 29 35 50 60 53 39 34 42 49 48 46 47 51 53 53 53 55 55 56 56 55
31 31 30 28 27 27 29 30 31 32 32 33 34 35 36 36 37 36 32 29 30 32 33 31 29 31 34 33 31 31 32 33 33 32 31 30 30 30 31 33 33 32 30 30 30 31 32 31 29 33 39 36 34 41 48 51 49 43 39 39 42 43 41 40 41 46 52 59 58 41 27 36 48 45 43 46 48 50 52 52 54 55 53 56 58
29 28 27 27 28 29 28 29 31 33 33 34 35 36 37 36 36 35 33 32 30 28 28 28 29 32 34 35 34 32 33 34 33 30 28 27 27 27 28 28 29 29 30 31 33 34 33 34 36 39 44 45 41 44 50 56 56 53 53 54 52 47 43 38 36 42 49 55 57 42 24 33 47 41 37 44 45 46 48 48 50 53 53 57 60
27 27 27 28 28 29 30 30 32 33 34 34 35 37 37 36 34 33 31 30 30 30 31 30 30 31 31 32 32 32 33 36 36 34 31 29 27 26 25 25 25 26 29 32 33 35 37 39 40 41 44 48 48 46 52 60 59 58 55 48 43 41 34 25 23 32 41 47 54 48 30 31 44 39 33 40 43 42 45 47 48 50 53 58 59
28 28 28 28 28 30 32 32 32 34 34 34 35 36 36 34 33 31 29 28 28 32 36 36 36 35 34 33 33 32 33 35 36 35 33 30 29 26 24 23 23 25 29 31 33 37 40 42 44 47 49 52 54 50 54 62 60 57 46 31 33 38 28 17 14 21 33 42 50 49 35 30 39 38 32 36 42 41 42 46 48 49 52 57 58
29 29 29 29 30 30 31 33 33 33 34 36 36 35 34 33 32 30 29 27 26 29 32 34 35 35 33 33 34 34 33 33 34 34 32 31 29 27 24 23 22 24 28 29 30 34 39 40 43 48 51 52 54 52 56 61 59 58 49 37 42 41 24 14 14 18 28 38 45 43 32 28 37 37 30 29 30 34 40 44 47 49 51 54 56
28 29 29 29 30 31 31 33 33 33 36 39 37 34 33 33 32 31 29 25 24 25 24 25 29 30 29 29 31 34 35 34 34 34 34 33 31 27 24 22 21 23 27 27 27 30 33 36 39 43 43 45 50 51 56 61 59 62 60 55 56 47 27 20 22 19 15 24 43 48 33 28 38 39 32 25 15 18 34 42 44 48 50 51 53
Wind_Direction
8 6 3 1 359 356 354 351 348 345 343 340 338 334 330 328 325 323 322 320 319 318 317 315 313 312 310 308 306 305 304 302 297 290 282 273 267 266 264 261 260 260 258 256 254 253 249 243 243 241 237 233 233 232 227 222 220 216 213 209 207 207 204 201 198 195 193 191 190 189 188 188 187 185 182 176 174 176 176 173 169 168 165 164 165
7 6 4 2 359 356 353 350 347 344 340 336 333 329 325 323 321 319 318 316 314 313 313 312 311 309 308 306 304 303 301 301 299 294 288 280 272 269 266 261 259 259 258 255 253 253 251 245 243 242 238 234 233 233 231 228 225 219 214 209 205 206 206 203 200 196 195 193 192 190 188 188 187 186 183 176 174 176 176 173 171 169 166 165 168
10 7 4 1 358 354 351 349 347 345 340 334 330 326 322 319 316 315 313 312 310 309 309 307 307 306 306 304 302 301 298 298 298 296 292 285 278 272 268 262 259 258 257 256 252 252 253 250 247 243 240 237 234 234 231 228 225 221 216 211 205 206 207 204 201 198 196 194 192 190 189 188 187 186 183 179 176 176 175 174 172 170 166 165 167
12 8 4 0 357 354 352 350 347 344 340 335 330 326 321 318 314 312 309 308 306 305 304 303 301 302 303 302 301 300 298 298 295 294 293 289 282 274 268 263 258 256 255 255 252 251 252 251 250 246 241 239 236 234 229 225 225 223 218 213 209 208 207 205 203 200 197 195 193 191 189 188 187 186 183 180 177 176 177 175 174 171 168 167 168
9 6 4 1 358 356 354 351 347 343 339 336 331 325 320 316 314 311 308 306 303 301 301 298 297 298 299 300 301 300 299 298 294 292 292 291 287 278 270 264 259 256 254 254 252 251 250 249 249 246 240 238 237 234 231 228 226 224 220 217 216 212 207 206 204 201 198 196 194 191 189 188 187 187 184 180 177 179 180 177 176 174 171 170 170
6 4 3 1 358 356 353 350 347 343 339 336 331 326 320 313 311 309 306 305 301 299 298 295 295 295 296 298 298 299 300 298 295 293 291 289 289 284 275 268 261 257 254 253 252 251 249 247 247 245 242 241 239 236 234 231 226 225 223 220 219 214 208 207 206 204 200 197 194 191 189 188 188 187 184 181 179 180 180 177 177 175 172 171 172
3 2 1 359 357 354 351 348 345 343 339 336 331 327 322 314 310 307 303 301 299 298 297 294 294 293 293 295 295 297 298 296 294 292 290 288 287 285 280 272 265 259 255 253 252 251 250 248 246 245 245 244 240 237 236 231 226 226 224 222 222 214 206 206 207 205 202 197 194 191 189 188 188 187 185 182 181 180 179 178 177 174 172 171 173
359 358 356 355 354 351 350 347 345 342 339 335 329 324 322 316 311 306 302 298 296 295 295 294 293 293 293 293 292 293 293 293 292 290 289 287 284 281 280 277 269 261 257 254 252 251 250 250 248 245 244 244 242 239 237 233 229 228 225 225 225 218 210 207 206 204 201 197 195 192 190 188 187 186 184 181 181 179 178 178 175 173 171 171 174
355 354 352 351 351 350 350 349 346 342 338 333 327 321 319 316 312 307 301 297 294 291 291 291 292 293 294 293 291 291 289 288 289 289 288 285 281 278 276 276 272 265 258 254 252 250 250 251 251 248 244 243 242 239 238 235 231 228 226 226 226 221 215 211 207 202 200 198 196 193 190 188 186 186 184 181 180 179 177 177 174 173 172 171 175
352 350 349 348 348 348 348 348 345 342 338 332 327 322 318 314 310 306 300 295 292 290 288 289 289 290 291 290 291 289 287 285 286 287 285 281 278 275 272 271 271 267 260 255 252 250 248 249 251 250 247 243 241 239 237 235 231 228 226 225 226 224 216 210 206 202 200 199 196 193 190 188 187 187 185 181 180 179 177 178 176 173 172 173 176
347 346 346 345 345 345 344 345 344 341 338 333 330 326 320 314 309 307 301 290 286 286 287 288 288 287 287 287 288 287 286 285 284 283 282 279 276 272 270 266 266 266 263 256 252 250 247 247 248 249 248 245 241 238 237 236 233 232 232 229 227 226 219 211 207 203 200 199 196 193 189 186 185 184 182 180 179 178 177 178 177 174 173 175 177
343 342 342 341 341 341 340 342 342 340 337 332 328 324 319 313 308 306 302 292 284 281 283 287 288 286 283 284 285 284 283 283 281 279 278 276 274 270 267 264 262 263 263 258 252 251 248 245 244 245 246 245 242 237 236 236 234 233 234 230 227 228 222 212 208 204 200 198 194 191 188 184 183 182 181 180 179 177 177 178 177 175 175 176 178
340 340 339 339 338 338 337 337 337 335 330 326 322 318 314 308 303 302 300 295 288 284 283 285 287 286 286 285 284 282 281 281 279 276 275 273 270 267 263 261 258 259 262 259 253 250 248 245 243 242 242 242 241 238 236 235 233 231 229 228 226 227 224 214 207 203 199 197 193 189 187 183 182 180 180 180 178 177 178 178 177 175 176 177 178
337 336 335 335 335 335 333 330 329 327 321 317 313 309 305 301 299 298 298 295 290 288 287 284 280 282 290 292 289 286 283 279 275 273 273 272 269 265 260 257 254 254 257 257 252 249 247 245 241 240 239 239 239 237 235 232 230 230 229 230 229 228 228 218 207 202 199 196 192 188 186 183 180 177 176 177 176 177 177 177 176 176 176 177 177
334 332 331 331 331 330 327 324 321 318 314 311 307 305 303 299 296 293 294 294 288 285 284 279 274 277 284 284 289 300 292 280 274 274 276 274 268 264 259 255 252 251 252 253 251 247 246 244 241 238 237 237 236 234 233 230 228 228 228 229 231 230 231 223 208 202 199 196 191 187 186 182 178 176 176 176 175 176 176 176 176 176 175 176 177
330 329 326 325 325 323 321 318 315 313 311 309 308 307 305 302 297 291 289 292 292 289 283 276 271 271 272 269 280 297 287 285 293 287 282 276 268 266 264 257 252 249 247 248 248 245 244 242 240 238 237 236 235 232 231 231 228 227 227 227 228 228 230 227 212 203 199 196 190 185 184 180 176 175 175 176 175 175 176 176 175 175 175 176 176
325 324 321 319 317 316 314 311 310 310 309 308 307 304 301 297 294 289 287 290 294 293 288 279 268 261 254 257 273 267 269 294 323 291 282 277 270 270 272 265 257 250 245 244 244 243 242 241 240 238 236 236 235 233 231 231 230 227 227 227 227 227 227 228 218 206 200 196 190 183 182 179 175 175 175 175 175 174 175 176 175 174 173 175 175
323 322 318 316 314 312 310 308 306 306 306 306 303 299 296 290 287 287 287 287 288 288 286 283 275 264 254 248 251 254 262 295 311 293 285 281 273 273 276 274 267 261 252 246 244 243 241 239 239 237 235 234 233 232 230 230 230 227 226 226 226 227 225 225 222 211 201 197 191 185 181 178 175 175 175 175 174 174 175 175 174 173 172 174 175
321 319 316 314 311 311 311 309 306 304 305 304 301 298 294 288 284 282 285 287 285 281 280 282 283 276 262 249 247 251 256 265 271 281 291 284 274 271 274 277 273 267 262 254 249 249 247 242 240 237 235 233 231 230 229 229 229 226 225 225 224 224 223 223 222 212 202 196 191 186 182 177 174 174 175 174 173 173 175 175 173 172 172 173 174
317 315 312 310 309 310 310 309 307 305 304 302 300 298 293 288 283 280 282 283 277 274 275 278 281 283 279 267 257 255 256 256 253 256 273 285 281 272 271 277 275 269 266 263 259 257 253 248 243 239 236 234 232 229 227 227 227 226 223 223 223 222 221 221 222 214 202 194 189 185 181 176 174 174 172 172 173 173 173 173 172 172 173 174 174
312 310 308 307 307 308 308 307 306 304 302 299 297 295 291 286 282 279 279 277 274 275 277 278 278 278 282 282 276 268 261 255 249 248 252 265 277 278 274 278 276 270 267 269 271 270 260 251 245 240 236 232 230 227 226 225 225 225 223 222 223 221 220 220 224 223 204 190 185 181 179 176 173 171 170 171 173 172 172 172 173 173 173 174 174
308 307 306 306 307 307 306 303 302 301 298 294 292 291 289 285 280 277 275 274 276 278 277 275 273 271 273 277 277 271 263 256 247 244 249 254 262 271 276 280 279 276 271 266 268 273 268 254 246 242 238 232 228 226 225 225 225 225 224 223 223 221 220 218 219 227 209 188 181 177 175 175 171 169 170 171 172 172 172 172 171 171 172 173 172
304 304 303 305 306 304 302 299 298 297 292 290 288 288 288 285 280 275 272 273 276 278 274 269 266 268 272 273 271 268 260 254 246 242 245 251 263 271 274 275 270 274 276 271 266 268 266 257 247 242 239 232 227 225 224 224 225 226 226 225 226 224 222 218 214 216 207 187 178 175 174 174 172 169 169 171 171 172 172 171 170 170 172 173 172
302 302 301 303 303 301 299 297 295 292 290 288 286 285 286 282 278 275 274 275 277 275 270 265 264 269 273 273 272 272 267 258 250 245 245 249 261 272 273 277 272 268 277 278 272 267 262 258 251 243 238 233 226 223 223 224 225 227 228 227 229 229 224 221 213 205 199 188 178 174 173 173 171 169 169 171 171 171 172 172 170 170 173 173 174
300 300 300 301 301 299 297 295 293 290 288 286 285 284 282 278 275 274 274 275 275 271 267 266 268 270 272 273 273 276 275 267 255 247 246 248 253 265 266 268 270 267 272 275 276 274 267 263 257 244 237 233 226 222 223 225 226 227 229 228 230 231 228 221 212 200 193 188 182 176 172 171 170 169 171 171 169 171 174 172 170 171 174 174 177
298 298 299 299 298 296 295 293 291 290 287 284 283 281 278 275 274 273 273 274 272 268 269 275 279 278 277 277 276 277 279 276 263 249 244 244 245 257 264 262 263 263 262 259 264 274 272 269 263 246 236 232 225 223 223 223 224 224 225 228 229 230 226 217 207 198 189 184 181 175 172 171 169 169 171 170 170 174 174 172 172 173 174 176 178
298 298 299 298 297 295 293 290 288 288 286 284 281 278 277 275 273 273 272 273 271 268 270 274 275 275 276 276 276 277 280 281 270 252 241 240 242 252 261 263 264 260 251 248 250 256 258 262 265 253 241 233 223 219 218 216 216 216 218 221 222 222 219 209 199 192 185 179 177 174 171 170 171 172 171 170 172 174 173 173 174 173 174 178 179
298 299 299 297 295 294 292 289 287 285 284 282 278 276 276 275 275 274 272 272 272 272 273 272 270 271 273 273 275 277 279 282 275 257 244 241 243 251 258 257 263 267 256 248 242 247 249 251 261 260 248 239 228 218 213 211 210 210 208 204 204 208 207 199 190 184 178 174 172 172 170 169 172 173 172 171 173 173 173 173 173 172 175 178 178
299 298 297 296 294 292 290 288 285 282 282 280 276 273 274 274 274 273 272 272 273 273 272 271 269 268 268 270 274 278 280 283 280 264 250 245 245 249 255 255 258 267 265 259 250 244 245 240 248 261 252 240 234 224 215 212 209 205 199 189 183 183 184 182 177 174 173 173 171 170 170 171 173 174 173 173 173 172 173 173 171 172 175 178 179
299 297 296 294 292 291 289 286 283 281 281 279 275 270 270 271 270 270 271 270 270 270 267 265 265 264 265 270 274 278 280 282 283 271 253 246 247 247 251 254 255 256 259 262 257 239 238 237 241 257 259 243 233 227 219 214 209 202 195 185 173 166 165 166 167 168 171 174 173 171 172 173 174 174 175 175 173 172 173 172 172 174 177 180 182
299 296 294 292 291 290 288 286 284 282 280 277 271 267 266 266 268 269 269 269 268 268 267 267 271 275 277 279 278 277 278 280 284 278 258 247 248 248 250 255 256 259 261 261 260 244 230 236 242 250 264 255 235 223 217 213 209 202 195 187 178 171 167 166 167 169 171 172 173 174 174 174 175 175 176 175 174 173 173 173 173 176 179 182 182
297 294 292 290 290 289 287 284 283 282 280 275 269 265 264 264 267 268 268 268 267 268 269 270 276 281 279 277 273 272 275 277 283 282 265 248 246 249 251 256 256 258 261 259 267 260 240 237 244 248 260 268 246 222 211 207 206 203 197 190 183 178 175 173 172 172 172 172 172 174 175 175 175 176 177 176 175 174 174 174 176 178 181 182 182
296 294 292 290 289 287 285 282 281 281 280 278 272 265 262 266 268 268 267 267 266 267 268 268 270 274 274 273 272 271 274 276 279 282 271 252 247 249 250 255 256 253 253 252 257 270 257 242 242 247 254 267 259 226 205 199 200 199 197 193 187 183 182 180 177 176 175 173 172 173 175 175 177 178 178 176 175 176 176 176 178 180 182 182 184
299 294 291 291 289 286 283 281 281 282 281 279 276 270 265 266 268 268 267 266 266 265 266 267 270 273 275 277 279 278 278 276 276 280 274 258 249 252 250 249 252 249 246 248 249 262 268 249 241 246 250 258 260 232 204 193 193 191 189 191 190 187 185 182 179 177 176 174 172 171 173 175 177 179 179 178 177 177 179 179 179 181 182 183 185
301 294 290 290 289 287 284 283 283 283 281 278 277 274 271 269 269 269 266 264 265 264 264 267 269 271 274 277 278 276 275 275 274 277 276 264 249 249 252 248 248 249 245 247 250 250 264 259 246 245 247 252 254 233 205 191 188 184 181 184 185 184 183 180 177 176 175 173 172 172 172 174 176 179 180 180 180 180 180 180 182 183 183 184 186
297 294 293 292 291 289 286 285 285 284 281 279 279 276 273 271 271 271 269 266 265 264 264 266 266 269 272 272 273 274 272 271 270 274 277 268 249 244 251 251 250 251 248 248 254 254 257 261 250 245 244 250 253 231 203 190 185 180 177 178 178 178 177 176 174 174 174 173 172 173 174 173 175 178 180 182 182 181 181 183 184 185 185 186 186
296 298 298 296 295 291 288 287 286 284 281 280 280 278 273 271 271 272 271 268 267 265 265 265 265 267 269 269 271 272 270 267 267 271 273 267 253 243 247 254 255 253 250 250 255 258 259 257 251 249 244 247 253 230 197 184 179 176 175 173 172 172 172 173 173 172 174 174 172 175 177 175 175 177 181 183 183 183 185 185 186 186 187 187 187
301 302 300 298 296 292 290 288 286 284 282 280 279 277 275 273 272 271 270 268 268 266 266 266 264 265 268 268 268 267 266 264 265 268 270 267 258 248 247 255 259 260 257 254 255 258 261 260 251 249 245 243 250 233 193 178 172 169 168 166 166 166 165 167 170 172 173 173 173 175 178 179 178 178 181 184 185 186 188 188 188 188 189 189 189
304 304 301 298 296 293 291 289 287 285 284 282 279 276 275 273 271 271 269 267 268 267 266 265 264 266 269 268 267 266 265 263 262 263 263 263 260 255 251 251 256 261 260 258 256 254 255 256 249 245 244 243 248 238 193 175 169 166 162 158 157 159 159 162 166 170 171 172 174 176 180 182 182 181 183 185 188 189 190 190 190 190 190 190 191
305 303 301 298 296 295 291 289 288 286 284 283 280 277 275 273 270 268 267 266 267 267 267 265 263 265 268 267 267 267 265 263 262 260 259 260 260 255 246 241 247 257 264 269 271 265 259 256 247 239 239 241 246 238 196 173 168 166 163 158 153 154 157 162 168 170 171 171 173 176 180 183 183 183 184 186 189 191 192 192 192 192 192 192 192
306 303 301 298 297 296 293 291 288 286 284 282 279 278 276 274 271 267 265 263 262 262 264 265 264 263 263 264 265 265 264 263 263 262 261 261 261 256 246 239 241 250 263 269 269 273 271 265 253 239 235 237 238 233 203 175 167 164 164 162 157 157 158 161 168 172 172 170 170 174 180 183 183 184 184 186 189 192 193 194 194 193 193 193 193
309 307 304 300 296 296 295 293 289 286 284 281 280 280 278 277 275 271 267 264 258 256 257 259 261 260 259 262 265 265 264 263 262 261 260 258 257 254 247 241 240 245 254 257 256 261 263 267 267 247 231 233 230 223 204 179 170 165 164 163 157 155 155 153 161 170 172 170 168 171 179 184 183 183 185 186 189 192 194 195 195 195 195 196 194
314 312 308 303 300 297 294 293 291 288 285 283 283 284 282 280 278 275 274 271 267 261 257 256 258 261 264 267 269 269 267 264 261 259 258 255 251 249 246 245 245 245 245 246 250 255 253 260 270 255 231 223 227 218 198 181 174 168 164 162 155 152 153 150 152 168 173 172 169 170 177 182 182 182 185 187 189 192 194 195 196 195 196 198 196
317 314 310 307 304 299 295 295 294 291 288 287 288 288 286 283 281 279 277 275 273 270 264 259 259 263 270 272 271 271 269 267 264 259 256 254 250 247 246 245 244 243 243 244 246 252 256 257 266 267 247 218 216 216 197 179 174 168 163 161 160 158 160 161 159 168 174 174 170 169 173 178 181 182 184 188 190 192 194 195 195 196 197 198 195
317 314 312 309 305 301 300 300 298 296 294 292 292 291 289 286 283 281 278 274 271 269 267 264 260 264 270 271 270 269 268 268 266 261 256 254 252 248 244 241 238 236 239 242 245 251 258 257 258 269 260 229 211 211 196 178 170 167 163 163 165 164 164 167 167 168 172 173 170 168 171 176 180 182 183 187 190 190 193 195 195 196 196 195 191
318 315 314 312 309 307 306 303 301 299 297 297 296 295 292 290 286 284 283 277 268 264 263 260 257 260 265 266 267 267 268 269 268 262 255 253 252 246 239 236 234 234 238 243 249 255 257 256 256 261 263 250 222 208 195 178 171 170 167 166 169 170 169 171 168 165 169 173 171 167 170 178 180 181 182 186 189 190 191 194 196 197 194 190 188
317 315 313 312 311 310 308 307 305 303 300 299 300 299 297 295 292 289 286 279 271 266 266 263 259 259 260 260 262 263 265 268 269 268 266 262 255 245 238 237 236 240 245 247 252 256 256 257 257 257 262 261 241 215 195 180 175 174 173 172 171 168 163 159 157 159 167 174 172 168 171 180 180 180 181 185 187 188 189 192 197 198 192 185 186
316 314 312 312 311 310 310 309 306 304 303 303 302 301 299 298 296 293 287 281 274 270 270 267 263 262 261 260 260 258 258 262 265 269 270 265 260 253 246 245 244 246 249 250 254 259 259 261 263 261 263 263 253 229 198 182 179 177 172 167 160 152 145 141 145 156 167 174 176 174 172 177 180 178 176 181 184 184 186 190 194 198 191 183 184
317 315 313 313 312 311 310 309 306 304 304 306 306 304 303 302 301 299 296 292 286 280 276 268 261 259 261 261 259 254 254 257 261 263 262 261 262 261 257 255 253 252 254 255 258 261 264 266 268 269 268 262 255 237 203 185 180 174 164 151 148 149 148 150 153 159 168 175 180 178 170 171 180 176 168 175 182 184 186 189 191 195 193 186 185
316 315 314 313 312 311 311 310 308 306 306 309 309 306 305 305 304 303 302 298 295 292 284 269 258 256 260 262 258 252 250 254 257 259 261 261 262 261 258 258 257 255 256 258 260 264 270 274 275 276 272 259 250 234 204 185 178 171 163 159 162 161 158 158 158 160 169 177 181 177 166 167 176 173 160 162 176 184 188 190 190 191 191 188 187
314 314 314 313 312 312 312 311 310 309 307 306 306 305 305 307 308 307 305 301 300 302 294 273 260 257 259 261 259 254 251 252 253 255 256 256 255 254 254 256 256 255 256 258 262 268 274 279 282 282 269 249 238 224 198 182 175 172 171 169 168 165 163 163 161 158 160 178 183 179 169 166 173 173 166 161 166 188 190 191 191 191 191 189 187